• In Belarus
  • List of Countries
  • For 7 days
  • Water Temperature
  • Satellite Maps
  • Weather Map
  • Weather Widgets
  • user-avatar
    Login

    Hourly Weather Kalgoorlie

    Today, 22 September, Friday

    Time Temperature Precipitation Wind Pressure Humidity
    00:00 +18°C° 0 mm 7 mps 723 mmHg 64%
    01:00 +18°C° 0 mm 7 mps 723 mmHg 66%
    02:00 +17°C° 0 mm 6 mps 722 mmHg 69%
    03:00 +17°C° 0 mm 6 mps 722 mmHg 71%
    04:00 +16°C° 0 mm 6 mps 722 mmHg 73%
    05:00 +16°C° 0 mm 6 mps 722 mmHg 75%
    06:00 +16°C° 0 mm 7 mps 722 mmHg 69%
    07:00 +17°C° 0 mm 9 mps 722 mmHg 64%
    08:00 +18°C° 0 mm 11 mps 722 mmHg 61%
    09:00 +18°C° 0 mm 12 mps 722 mmHg 57%
    10:00 +19°C° 0 mm 13 mps 722 mmHg 52%
    11:00 +19°C° 0 mm 14 mps 721 mmHg 48%
    12:00 +19°C° 0 mm 14 mps 721 mmHg 49%
    13:00 +18°C° 0 mm 14 mps 721 mmHg 49%
    14:00 +19°C° 0 mm 14 mps 720 mmHg 47%
    15:00 +18°C° 0.1 mm 14 mps 720 mmHg 49%
    16:00 +18°C° 0.1 mm 14 mps 721 mmHg 50%
    17:00 +17°C° 0.1 mm 14 mps 721 mmHg 51%
    18:00 +17°C° 0 mm 13 mps 722 mmHg 50%
    19:00 +16°C° 0 mm 11 mps 722 mmHg 49%
    20:00 +15°C° 0 mm 8 mps 723 mmHg 47%
    21:00 +13°C° 0 mm 8 mps 724 mmHg 51%
    22:00 +13°C° 0 mm 9 mps 724 mmHg 55%
    23:00 +12°C° 0 mm 9 mps 724 mmHg 58%

    Tomorrow, 23 September, Saturday

    Time Temperature Precipitation Wind Pressure Humidity
    00:00 +11°C° 0 mm 9 mps 724 mmHg 62%
    01:00 +11°C° 0 mm 8 mps 724 mmHg 66%
    02:00 +10°C° 0 mm 7 mps 724 mmHg 70%
    03:00 +10°C° 0 mm 7 mps 725 mmHg 73%
    04:00 +9°C° 0 mm 7 mps 725 mmHg 76%
    05:00 +9°C° 0 mm 6 mps 725 mmHg 79%
    06:00 +10°C° 0 mm 7 mps 725 mmHg 74%
    07:00 +10°C° 0 mm 8 mps 726 mmHg 68%
    08:00 +11°C° 0 mm 9 mps 726 mmHg 63%
    09:00 +11°C° 0 mm 9 mps 726 mmHg 59%
    10:00 +12°C° 0 mm 8 mps 726 mmHg 56%
    11:00 +12°C° 0 mm 8 mps 726 mmHg 52%
    12:00 +13°C° 0 mm 8 mps 726 mmHg 49%
    13:00 +13°C° 0 mm 8 mps 726 mmHg 46%
    14:00 +15°C° 0 mm 8 mps 726 mmHg 43%
    15:00 +15°C° 0 mm 7 mps 726 mmHg 43%
    16:00 +15°C° 0 mm 7 mps 726 mmHg 42%
    17:00 +15°C° 0 mm 6 mps 726 mmHg 42%
    18:00 +15°C° 0 mm 5 mps 726 mmHg 43%
    19:00 +15°C° 0 mm 4 mps 726 mmHg 45%
    20:00 +14°C° 0 mm 3 mps 727 mmHg 47%
    21:00 +14°C° 0 mm 3 mps 726 mmHg 49%
    22:00 +15°C° 0 mm 2 mps 726 mmHg 51%
    23:00 +15°C° 0 mm 2 mps 726 mmHg 53%

    Day after tomorrow, 24 September, Sunday

    Time Temperature Precipitation Wind Pressure Humidity
    00:00 +14°C° 0 mm 2 mps 726 mmHg 56%
    01:00 +14°C° 0 mm 2 mps 725 mmHg 59%
    02:00 +14°C° 0 mm 2 mps 725 mmHg 62%
    03:00 +13°C° 0 mm 1 mps 725 mmHg 63%
    04:00 +13°C° 0 mm 1 mps 725 mmHg 64%
    05:00 +12°C° 0 mm 0 mps 725 mmHg 65%
    06:00 +13°C° 0 mm 1 mps 725 mmHg 63%
    07:00 +14°C° 0 mm 1 mps 725 mmHg 62%
    08:00 +14°C° 0 mm 1 mps 725 mmHg 61%
    09:00 +16°C° 0 mm 3 mps 725 mmHg 55%
    10:00 +17°C° 0 mm 4 mps 725 mmHg 49%
    11:00 +17°C° 0 mm 6 mps 725 mmHg 43%
    12:00 +19°C° 0.1 mm 6 mps 724 mmHg 41%
    13:00 +19°C° 0.1 mm 6 mps 724 mmHg 40%
    14:00 +19°C° 0.1 mm 6 mps 723 mmHg 39%
    15:00 +19°C° 0.1 mm 6 mps 723 mmHg 40%
    16:00 +19°C° 0.1 mm 6 mps 723 mmHg 41%
    17:00 +19°C° 0.1 mm 6 mps 723 mmHg 42%
    18:00 +18°C° 0.1 mm 4 mps 723 mmHg 45%
    19:00 +17°C° 0.1 mm 3 mps 723 mmHg 49%
    20:00 +17°C° 0.1 mm 2 mps 723 mmHg 53%
    21:00 +16°C° 0 mm 2 mps 723 mmHg 54%
    22:00 +16°C° 0 mm 3 mps 723 mmHg 56%
    23:00 +14°C° 0 mm 3 mps 723 mmHg 57%

    25 September, Monday

    Time Temperature Precipitation Wind Pressure Humidity
    00:00 +14°C° 0.1 mm 3 mps 723 mmHg 58%
    01:00 +14°C° 0.1 mm 3 mps 723 mmHg 60%
    02:00 +13°C° 0.1 mm 3 mps 722 mmHg 61%
    03:00 +13°C° 0 mm 3 mps 722 mmHg 64%
    04:00 +13°C° 0 mm 3 mps 722 mmHg 67%
    05:00 +13°C° 0 mm 2 mps 722 mmHg 70%
    06:00 +13°C° 0.3 mm 3 mps 722 mmHg 66%
    07:00 +14°C° 0.3 mm 4 mps 722 mmHg 62%
    08:00 +15°C° 0.3 mm 6 mps 723 mmHg 58%
    09:00 +16°C° 0.4 mm 7 mps 722 mmHg 54%
    10:00 +17°C° 0.4 mm 8 mps 722 mmHg 49%
    11:00 +18°C° 0.4 mm 9 mps 722 mmHg 45%
    12:00 +18°C° 0.3 mm 9 mps 722 mmHg 45%
    13:00 +18°C° 0.3 mm 10 mps 721 mmHg 45%
    14:00 +17°C° 0.3 mm 10 mps 721 mmHg 45%
    15:00 +17°C° 0.4 mm 9 mps 721 mmHg 46%
    16:00 +17°C° 0.4 mm 8 mps 721 mmHg 47%
    17:00 +16°C° 0.4 mm 7 mps 721 mmHg 48%
    18:00 +15°C° 0 mm 6 mps 721 mmHg 50%
    19:00 +15°C° 0 mm 5 mps 721 mmHg 52%
    20:00 +14°C° 0 mm 4 mps 721 mmHg 54%
    21:00 +14°C° 0 mm 5 mps 721 mmHg 55%
    22:00 +14°C° 0 mm 5 mps 721 mmHg 56%
    23:00 +13°C° 0 mm 6 mps 721 mmHg 57%

    26 September, Tuesday

    Time Temperature Precipitation Wind Pressure Humidity
    00:00 +11°C° 0 mm 6 mps 721 mmHg 62%
    01:00 +10°C° 0 mm 6 mps 721 mmHg 66%
    02:00 +10°C° 0 mm 7 mps 720 mmHg 71%
    03:00 +9°C° 0 mm 6 mps 721 mmHg 73%
    04:00 +9°C° 0 mm 6 mps 721 mmHg 75%
    05:00 +8°C° 0 mm 6 mps 721 mmHg 78%
    06:00 +9°C° 0 mm 7 mps 722 mmHg 73%
    07:00 +10°C° 0 mm 8 mps 722 mmHg 68%
    08:00 +11°C° 0 mm 9 mps 723 mmHg 63%
    09:00 +12°C° 0 mm 9 mps 723 mmHg 60%
    10:00 +13°C° 0 mm 8 mps 723 mmHg 57%
    11:00 +15°C° 0 mm 8 mps 723 mmHg 53%
    12:00 +16°C° 0 mm 8 mps 723 mmHg 49%
    13:00 +17°C° 0 mm 9 mps 723 mmHg 45%
    14:00 +18°C° 0 mm 9 mps 723 mmHg 41%
    15:00 +17°C° 0.1 mm 9 mps 723 mmHg 46%
    16:00 +16°C° 0.1 mm 9 mps 724 mmHg 51%
    17:00 +14°C° 0.1 mm 10 mps 724 mmHg 55%
    18:00 +13°C° 0 mm 9 mps 725 mmHg 60%
    19:00 +12°C° 0 mm 8 mps 726 mmHg 64%
    20:00 +11°C° 0 mm 7 mps 727 mmHg 69%
    21:00 +11°C° 0 mm 7 mps 727 mmHg 69%
    22:00 +10°C° 0 mm 7 mps 727 mmHg 69%
    23:00 +10°C° 0 mm 6 mps 727 mmHg 69%

    27 September, Wednesday

    Time Temperature Precipitation Wind Pressure Humidity
    00:00 +10°C° 0 mm 6 mps 728 mmHg 70%
    01:00 +10°C° 0 mm 6 mps 728 mmHg 71%
    02:00 +10°C° 0 mm 7 mps 728 mmHg 72%
    03:00 +9°C° 0 mm 6 mps 728 mmHg 74%
    04:00 +9°C° 0 mm 6 mps 728 mmHg 76%
    05:00 +8°C° 0 mm 5 mps 729 mmHg 78%
    06:00 +9°C° 0 mm 6 mps 729 mmHg 74%
    07:00 +10°C° 0 mm 6 mps 730 mmHg 69%
    08:00 +10°C° 0 mm 6 mps 731 mmHg 65%
    09:00 +11°C° 0 mm 6 mps 731 mmHg 59%
    10:00 +13°C° 0 mm 5 mps 730 mmHg 54%
    11:00 +14°C° 0 mm 5 mps 730 mmHg 49%
    12:00 +15°C° 0 mm 5 mps 730 mmHg 43%
    13:00 +17°C° 0 mm 4 mps 730 mmHg 37%
    14:00 +18°C° 0 mm 4 mps 729 mmHg 31%
    15:00 +18°C° 0 mm 4 mps 729 mmHg 30%
    16:00 +18°C° 0 mm 4 mps 730 mmHg 30%
    17:00 +18°C° 0 mm 4 mps 730 mmHg 29%
    18:00 +17°C° 0 mm 4 mps 730 mmHg 34%
    19:00 +15°C° 0 mm 5 mps 731 mmHg 39%
    20:00 +14°C° 0 mm 5 mps 731 mmHg 45%
    21:00 +13°C° 0 mm 5 mps 732 mmHg 48%
    22:00 +12°C° 0 mm 4 mps 732 mmHg 51%
    23:00 +11°C° 0 mm 4 mps 732 mmHg 54%
    Show more